DMSP 5D-2 F13 DEB, 40448

Orbit data source: Space-Track

DMSP 5D-2 F13 DEB, 40448 is space debris in SSO originally from a launch on Fri, 24 Mar 1995 UTC launched from the Air Force Western Test Range (AFWTR). Debris objects in space refer to the collection of defunct objects orbiting the Earth. Examples of debris include non-operational satellites, rocket bodies, and fragments generated from explosions, collisions, or faulty payload assembly.

Loading next visibility...
Identifier
40448, 1995-015BA
Orbit
SSO
Country
Flag of USUS
Related business
Manufacturer
Unknown
Mission
Spacecraft
Bus & Motor
Unknown
Mass
Unknown
Launch date (UTC)
1995-03-24 (31 years ago)
Launch vehicle
Unknown
Launch site
Air Force Western Test Range (AFWTR)
Object type
Payload
Rocket body
Debris
Shape & HBR
Unknown shape, 0.1 m
Radar Cross Section
Medium (>0.1 m² and <1 m²)

Expand to show TLE details & history
Last TLE update: 3 days ago

TLE from 3 days ago
0 DMSP 5D-2 F13 DEB
1 40448U 95015BA  26205.48256240  .00003437  00000-0  14338-2 0  9994
2 40448  98.9740 213.1911 0034801 301.3112  58.4662 14.26582854586841
Epoch: 2026-07-24T11:34Z
TLE epoch observation values (Epoch: 2026-07-24T11:34:53.391Z)
Latitude
Longitude
97.26008°
Altitude
793.081 km
Speed
7.464 km/s
True Right ascension
14h 12m 45s
True Declination
0° 00' 00"
Sunlit
Object was in daylight at epoch
Visualization orbit readout
Latitude
Unknown
Longitude
Unknown
Altitude
Unknown
Speed
Unknown
Apparent Right ascension
Unknown
Apparent Declination
Unknown
Sunlit
N/A
Visualization observer readout
Local Sidereal Time
19:51:24
Azimuth
Unknown
Elevation
Unknown
Doppler factor
Unknown
Orbital elements
Apogee altitude
825.32 km
Perigee altitude
775.357 km
Semi-major axis
7,178.475 km
Eccentricity
0.00348
Inclination
98.974°
RAAN
213.1911°
Arg. of periapsis
301.3112°
True anomaly
58.80687°
Mean anomaly
58.4662°
Eccentric anomaly
58.63646°
Mean motion
3.56858 °/min
Orbital period
100.88 mins
BSTAR
0.0014338
Loading maneuver chart data...
Computing Atmospheric mass density...

Documentation

Showing up to 5 results
|